Location: *
(13.0000°N, 151.6000°E)
Time: 15:28:26
(UTC+00:00)

Cosmos 1484 Rocket - Pass Details

Date: 01 April 2020
Orbit: 506 x 559 km, 97.4° (Epoch: 03 June)

Event Time Altitude Azimuth Distance (km) Brightness Sun altitude
Rises 18:55:14 0° 356° (N) 2,643 6.4 -13.9°
Reaches altitude 10° 18:57:30 10° 346° (NNW) 1,747 5.3 -13.4°
Maximum altitude 19:00:51 31° 283° (WNW) 914 3.4 -12.5°
Drops below altitude 10° 19:04:10 10° 220° (SW) 1,724 4.9 -11.7°
Enters shadow 19:04:25 - 218° (SW) 1,821 5.1 -11.7°
